Regional Weather Roundup
Issued by NWS Burlington, VT

Home | Current Version | Previous Version | Text Only | Print | Product List | Glossary On
Versions: 1 2 3 4 5 6 7 8 9 10 11 12 13 14 15 16 17 18 19 20 21 22 23 24 25 26 27 28 29 30 31 32 33 34 35 36 37 38 39 40 41 42 43 44 45 46 47 48 49 50
000
ASUS41 KBTV 292230
RWRBTV
VERMONT REGIONAL WEATHER ROUNDUP
NATIONAL WEATHER SERVICE BURLINGTON VT
600 PM EDT SUN MAR 29 2015

NOTE: "FAIR" INDICATES FEW OR NO CLOUDS BELOW 12,000 FEET WITH NO
SIGNIFICANT WEATHER AND/OR OBSTRUCTIONS TO VISIBILITY.

* THESE REPORTS ARE NOT UNDER NWS QUALITY CONTROL AND/OR DO NOT
  REPORT WEATHER SUCH AS PRECIPITATION AND FOG.

VTZ001>019-292300-
_____VERMONT_____


CITY           SKY/WX    TMP DP  RH WIND       PRES   REMARKS
BURLINGTON     PTCLDY    40   8  26 S10       30.05F
MONTPELIER     CLEAR     35   5  28 W3        30.07S
MORRISVILLE    CLEAR     37   8  30 S7        30.05S
ST. JOHNSBURY*   N/A     38   4  24 MISG      30.03S
LYNDONVILLE*     N/A     35  -3  19 S5        30.04F
MIDDLEBURY*      N/A     39   5  24 S7        30.05F
RUTLAND*       CLEAR     37   3  23 SW6       30.06F
SPRINGFIELD    CLEAR     39   2  21 W6        30.08S
HIGHGATE*        N/A     38  14  38 CALM      30.03F
NEWPORT*         N/A     34   7  31 S6        30.02F
BENNINGTON     CLEAR     38   7  27 W6        30.09S
MT. MANSFIELD*   N/A     23 N/A N/A CALM        N/A

_____LAKE CHAMPLAIN_____


CITY           SKY/WX    TMP DP  RH WIND       PRES   REMARKS
BURTON ISLAND*   N/A     36  21  55 S9          N/A
COLCHESTER RF*   N/A     36  19  51 SW20        N/A
DIAMOND ISL*     N/A     39  12  33 SE9         N/A

$$

NYZ007-026>031-035-052-083-292300-
_____NORTHERN NEW YORK_____


CITY           SKY/WX    TMP DP  RH WIND       PRES   REMARKS
PLATTSBURGH    CLEAR     38  13  35 S14       30.03F
SARANAC LAKE   CLEAR     34   5  29 SW12      29.97F
MASSENA        CLEAR     36  14  40 SW16G23   30.05F
OGDENSBURG*    CLEAR     36  12  38 SW8G21    30.02F
POTSDAM*       CLEAR     36  16  44 W16G22    30.03F
WATERTOWN      CLEAR     38  11  32 SW8       30.06F
FT DRUM        CLEAR     33   7  33 SW13      30.04F
ALBANY         PTCLDY    41   5  22 W7        30.12F
GLENS FALLS    CLEAR     39  12  33 SE15      30.08F

$$
NHZ002-005-011-292300-
_____NEW HAMPSHIRE_____


CITY           SKY/WX    TMP DP  RH WIND       PRES   REMARKS
LEBANON        CLEAR     41   4  21 W7        30.06S
KEENE          CLEAR     39   3  22 NW5       30.09S
MT WASHINGTON  PTCLDY    16 -13  27 W15         N/A  WCI   1
PLYMOUTH         N/A     40  13  32 W5        30.06R
WHITEFIELD     CLEAR     36   4  26 W3        30.03S

$$

_____REGIONAL QUEBEC LOCATIONS_____


CITY           SKY/WX    TMP DP  RH WIND       PRES   REMARKS
MONTREAL       MOCLDY    37  16  41 SW13G21   30.02F
QUEBEC CITY    MOCLDY    34  16  47 W13G18    29.98F
SHERBROOKE     CLEAR     34   7  32 W10       30.02S

_____REGIONAL ONTARIO LOCATIONS_____


CITY           SKY/WX    TMP DP  RH WIND       PRES   REMARKS
OTTAWA         MOCLDY    36  19  51 S13G25    29.97F

______KEY______
VSB  - VISIBILITY IN MILES
WCI  - WIND CHILL INDEX
HX   - HEAT INDEX
$$
NNNN


USA.gov is the U.S. government's official web portal to all federal, state and local government web resources and services.